Time,TemperatureF,DewpointF,PressureIn,WindDirection,WindDirectionDegrees,WindSpeedMPH,WindSpeedGustMPH,Humidity,HourlyPrecipIn,Conditions,Clouds,dailyrainin,SoftwareType,DateUTC
2013-02-20 00:09:00,39.2,38.7,29.96,ESE,112,0.0,-999.0,98,-99.99,,,0.00,Acu-Link.com,2013-02-20 08:09:00,
2013-02-20 00:24:00,39.2,38.7,29.97,ESE,112,0.0,-999.0,98,-99.99,,,0.00,Acu-Link.com,2013-02-20 08:24:00,
2013-02-20 00:39:00,39.4,38.9,29.97,East,90,0.0,-999.0,98,-99.99,,,0.00,Acu-Link.com,2013-02-20 08:39:00,
2013-02-20 00:54:00,39.6,39.1,29.97,East,90,0.0,-999.0,98,-99.99,,,0.00,Acu-Link.com,2013-02-20 08:54:00,
2013-02-20 01:18:00,39.6,39.1,29.97,East,90,0.0,-999.0,98,-99.99,,,0.00,Acu-Link.com,2013-02-20 09:18:00,
2013-02-20 01:33:00,39.6,39.1,29.97,ESE,112,0.0,-999.0,98,-99.99,,,0.00,Acu-Link.com,2013-02-20 09:33:00,
2013-02-20 01:48:00,38.8,38.3,29.97,South,180,0.0,-999.0,98,-99.99,,,0.00,Acu-Link.com,2013-02-20 09:48:00,
2013-02-20 02:03:00,38.5,38.0,29.98,SW,225,1.1,-999.0,98,-99.99,,,0.00,Acu-Link.com,2013-02-20 10:03:00,
2013-02-20 02:18:00,39.0,38.5,29.98,West,270,0.0,-999.0,98,-99.99,,,0.00,Acu-Link.com,2013-02-20 10:18:00,
2013-02-20 02:34:00,39.0,38.5,29.99,NNE,22,0.0,-999.0,98,-99.99,,,0.00,Acu-Link.com,2013-02-20 10:34:00,
2013-02-20 02:49:00,38.8,38.3,29.99,South,180,0.0,-999.0,98,-99.99,,,0.00,Acu-Link.com,2013-02-20 10:49:00,
2013-02-20 03:04:00,39.2,38.7,29.99,SE,135,0.0,-999.0,98,-99.99,,,0.00,Acu-Link.com,2013-02-20 11:04:00,
2013-02-20 03:19:00,39.4,38.9,29.99,ESE,112,0.0,-999.0,98,-99.99,,,0.00,Acu-Link.com,2013-02-20 11:19:00,
2013-02-20 03:34:00,39.2,38.7,29.99,ESE,112,0.0,-999.0,98,-99.99,,,0.00,Acu-Link.com,2013-02-20 11:34:00,
2013-02-20 03:50:00,39.4,38.9,29.99,East,90,0.0,-999.0,98,-99.99,,,0.00,Acu-Link.com,2013-02-20 11:50:00,
2013-02-20 04:05:00,39.2,38.7,29.99,SSW,202,0.0,-999.0,98,-99.99,,,0.00,Acu-Link.com,2013-02-20 12:05:00,
2013-02-20 04:20:00,39.2,38.7,29.99,SW,225,0.0,-999.0,98,-99.99,,,0.00,Acu-Link.com,2013-02-20 12:20:00,
2013-02-20 04:35:00,39.2,38.7,29.99,SW,225,0.0,-999.0,98,-99.99,,,0.00,Acu-Link.com,2013-02-20 12:35:00,
2013-02-20 04:50:00,39.6,39.1,29.98,SW,225,0.0,-999.0,98,-99.99,,,0.00,Acu-Link.com,2013-02-20 12:50:00,
2013-02-20 05:06:00,39.7,39.2,30.00,SE,135,0.0,-999.0,98,-99.99,,,0.00,Acu-Link.com,2013-02-20 13:06:00,
2013-02-20 05:21:00,39.9,39.4,29.98,SE,135,0.0,-999.0,98,-99.99,,,0.00,Acu-Link.com,2013-02-20 13:21:00,
2013-02-20 05:36:00,40.1,39.6,29.98,SSE,157,1.7,-999.0,98,-99.99,,,0.00,Acu-Link.com,2013-02-20 13:36:00,
2013-02-20 05:51:00,40.1,39.6,29.98,South,180,0.0,-999.0,98,-99.99,,,0.00,Acu-Link.com,2013-02-20 13:51:00,
2013-02-20 06:07:00,40.1,39.6,29.98,SE,135,0.0,-999.0,98,-99.99,,,0.00,Acu-Link.com,2013-02-20 14:07:00,
2013-02-20 06:22:00,40.1,39.6,29.97,SE,135,0.0,-999.0,98,-99.99,,,0.00,Acu-Link.com,2013-02-20 14:22:00,
2013-02-20 06:37:00,40.3,39.8,29.98,SE,135,0.0,-999.0,98,-99.99,,,0.00,Acu-Link.com,2013-02-20 14:37:00,
2013-02-20 06:52:00,40.3,39.8,29.97,SE,135,0.0,-999.0,98,-99.99,,,0.00,Acu-Link.com,2013-02-20 14:52:00,
2013-02-20 07:07:00,40.3,39.8,29.97,West,270,0.0,-999.0,98,-99.99,,,0.00,Acu-Link.com,2013-02-20 15:07:00,
2013-02-20 07:22:00,40.5,40.0,29.97,NE,45,0.0,-999.0,98,-99.99,,,0.00,Acu-Link.com,2013-02-20 15:22:00,
2013-02-20 07:38:00,40.5,40.0,29.96,ESE,112,0.0,-999.0,98,-99.99,,,0.00,Acu-Link.com,2013-02-20 15:38:00,
2013-02-20 07:53:00,40.8,40.3,29.97,ESE,112,0.0,-999.0,98,-99.99,,,0.00,Acu-Link.com,2013-02-20 15:53:00,
2013-02-20 08:08:00,41.0,40.5,29.96,ESE,112,0.0,-999.0,98,-99.99,,,0.00,Acu-Link.com,2013-02-20 16:08:00,
2013-02-20 08:24:00,41.5,41.0,29.96,ESE,112,0.0,-999.0,98,-99.99,,,0.00,Acu-Link.com,2013-02-20 16:24:00,
2013-02-20 08:39:00,41.9,41.4,29.97,ESE,112,1.7,-999.0,98,-99.99,,,0.00,Acu-Link.com,2013-02-20 16:39:00,
2013-02-20 08:54:00,42.3,41.8,29.96,ESE,112,1.7,-999.0,98,-99.99,,,0.00,Acu-Link.com,2013-02-20 16:54:00,
2013-02-20 09:09:00,43.2,42.7,29.96,SSW,202,1.1,-999.0,98,-99.99,,,0.00,Acu-Link.com,2013-02-20 17:09:00,
2013-02-20 09:24:00,43.3,42.8,29.96,West,270,4.7,-999.0,98,-99.99,,,0.00,Acu-Link.com,2013-02-20 17:24:00,
2013-02-20 09:40:00,43.5,43.0,29.96,West,270,5.3,-999.0,98,-99.99,,,0.00,Acu-Link.com,2013-02-20 17:40:00,
2013-02-20 09:55:00,43.7,43.2,29.95,West,270,7.8,-999.0,98,-99.99,,,0.00,Acu-Link.com,2013-02-20 17:55:00,
2013-02-20 10:10:00,43.5,43.0,29.94,NW,315,5.3,-999.0,98,-99.99,,,0.00,Acu-Link.com,2013-02-20 18:10:00,
2013-02-20 10:25:00,43.5,43.0,29.97,West,270,5.3,-999.0,98,-99.99,,,0.00,Acu-Link.com,2013-02-20 18:25:00,
2013-02-20 10:40:00,43.5,43.0,29.95,West,270,8.9,-999.0,98,-99.99,,,0.00,Acu-Link.com,2013-02-20 18:40:00,
2013-02-20 10:55:00,43.5,43.0,29.96,West,270,4.2,-999.0,98,-99.99,,,0.00,Acu-Link.com,2013-02-20 18:55:00,
2013-02-20 11:11:00,43.7,43.2,29.95,West,270,5.8,-999.0,98,-99.99,,,0.00,Acu-Link.com,2013-02-20 19:11:00,
2013-02-20 11:26:00,44.1,43.6,29.96,West,270,7.3,-999.0,98,-99.99,,,0.00,Acu-Link.com,2013-02-20 19:26:00,
2013-02-20 11:41:00,45.0,44.5,29.93,West,270,5.8,-999.0,98,-99.99,,,0.00,Acu-Link.com,2013-02-20 19:41:00,
2013-02-20 11:56:00,45.7,45.2,29.93,West,270,4.2,-999.0,98,-99.99,,,0.00,Acu-Link.com,2013-02-20 19:56:00,
2013-02-20 12:11:00,45.9,45.4,29.93,West,270,6.3,-999.0,98,-99.99,,,0.00,Acu-Link.com,2013-02-20 20:11:00,
2013-02-20 12:26:00,46.0,45.5,29.93,WNW,292,4.7,-999.0,98,-99.99,,,0.00,Acu-Link.com,2013-02-20 20:26:00,
2013-02-20 12:42:00,45.9,45.4,29.92,West,270,3.7,-999.0,98,-99.99,,,0.00,Acu-Link.com,2013-02-20 20:42:00,
2013-02-20 12:57:00,46.0,45.5,29.93,NNW,337,3.2,-999.0,98,-99.99,,,0.00,Acu-Link.com,2013-02-20 20:57:00,
2013-02-20 13:12:00,46.6,46.1,29.92,WNW,292,3.7,-999.0,98,-99.99,,,0.00,Acu-Link.com,2013-02-20 21:12:00,
2013-02-20 13:27:00,46.6,46.1,29.92,West,270,7.3,-999.0,98,-99.99,,,0.00,Acu-Link.com,2013-02-20 21:27:00,
2013-02-20 13:42:00,46.6,46.1,29.92,South,180,6.8,-999.0,98,-99.99,,,0.00,Acu-Link.com,2013-02-20 21:42:00,
2013-02-20 13:58:00,46.4,45.9,29.91,WNW,292,6.8,-999.0,98,-99.99,,,0.00,Acu-Link.com,2013-02-20 21:58:00,
2013-02-20 14:13:00,45.7,45.2,29.91,WSW,247,5.8,-999.0,98,-99.99,,,0.00,Acu-Link.com,2013-02-20 22:13:00,
2013-02-20 14:28:00,45.3,44.8,29.91,West,270,7.3,-999.0,98,-99.99,,,0.00,Acu-Link.com,2013-02-20 22:28:00,
2013-02-20 14:43:00,45.1,44.6,29.91,West,270,5.8,-999.0,98,-99.99,,,0.00,Acu-Link.com,2013-02-20 22:43:00,
2013-02-20 14:59:00,44.6,44.1,29.92,West,270,4.2,-999.0,98,-99.99,,,0.00,Acu-Link.com,2013-02-20 22:59:00,
2013-02-20 15:14:00,43.9,43.4,29.92,ESE,112,3.2,-999.0,98,-99.99,,,0.00,Acu-Link.com,2013-02-20 23:14:00,
2013-02-20 15:29:00,43.7,43.2,29.93,NW,315,0.0,-999.0,98,-99.99,,,0.01,Acu-Link.com,2013-02-20 23:29:00,
2013-02-20 15:45:00,43.3,42.8,29.93,West,270,3.2,-999.0,98,-99.99,,,0.01,Acu-Link.com,2013-02-20 23:45:00,
2013-02-20 16:00:00,42.8,42.3,29.93,West,270,3.7,-999.0,98,-99.99,,,0.01,Acu-Link.com,2013-02-21 00:00:00,
2013-02-20 16:15:00,42.8,42.3,29.93,West,270,3.2,-999.0,98,-99.99,,,0.02,Acu-Link.com,2013-02-21 00:15:00,
2013-02-20 16:30:00,42.8,42.3,29.94,West,270,0.0,-999.0,98,-99.99,,,0.03,Acu-Link.com,2013-02-21 00:30:00,
2013-02-20 16:45:00,42.8,42.3,29.94,NNE,22,0.0,-999.0,98,-99.99,,,0.04,Acu-Link.com,2013-02-21 00:45:00,
2013-02-20 17:01:00,42.8,42.3,29.95,West,270,0.0,-999.0,98,-99.99,,,0.04,Acu-Link.com,2013-02-21 01:01:00,
2013-02-20 17:16:00,42.6,42.1,29.94,WSW,247,0.0,-999.0,98,-99.99,,,0.05,Acu-Link.com,2013-02-21 01:16:00,
2013-02-20 17:31:00,42.6,42.1,29.94,SSW,202,0.0,-999.0,98,-99.99,,,0.05,Acu-Link.com,2013-02-21 01:31:00,
2013-02-20 17:46:00,42.4,41.9,29.95,South,180,0.0,-999.0,98,-99.99,,,0.05,Acu-Link.com,2013-02-21 01:46:00,
2013-02-20 18:01:00,41.9,41.4,29.94,SSW,202,1.7,-999.0,98,-99.99,,,0.05,Acu-Link.com,2013-02-21 02:01:00,
2013-02-20 18:17:00,41.4,40.9,29.95,West,270,2.2,-999.0,98,-99.99,,,0.05,Acu-Link.com,2013-02-21 02:17:00,
2013-02-20 18:32:00,41.4,40.9,29.94,ESE,112,0.0,-999.0,98,-99.99,,,0.05,Acu-Link.com,2013-02-21 02:32:00,
2013-02-20 18:47:00,41.0,40.5,29.94,South,180,0.0,-999.0,98,-99.99,,,0.05,Acu-Link.com,2013-02-21 02:47:00,
2013-02-20 19:02:00,40.8,40.3,29.95,SE,135,0.0,-999.0,98,-99.99,,,0.05,Acu-Link.com,2013-02-21 03:02:00,
2013-02-20 19:18:00,40.8,40.3,29.95,South,180,0.0,-999.0,98,-99.99,,,0.05,Acu-Link.com,2013-02-21 03:18:00,
2013-02-20 19:33:00,41.2,40.7,29.96,West,270,0.0,-999.0,98,-99.99,,,0.05,Acu-Link.com,2013-02-21 03:33:00,
2013-02-20 19:48:00,41.0,40.5,29.95,West,270,0.0,-999.0,98,-99.99,,,0.05,Acu-Link.com,2013-02-21 03:48:00,
2013-02-20 20:19:00,41.0,40.5,29.96,South,180,0.0,-999.0,98,-99.99,,,0.05,Acu-Link.com,2013-02-21 04:19:00,
2013-02-20 20:34:00,41.0,40.5,29.96,West,270,0.0,-999.0,98,-99.99,,,0.05,Acu-Link.com,2013-02-21 04:34:00,
2013-02-20 20:49:00,41.4,40.9,29.96,NNE,22,0.0,-999.0,98,-99.99,,,0.05,Acu-Link.com,2013-02-21 04:49:00,
2013-02-20 21:04:00,41.4,40.9,29.96,West,270,0.0,-999.0,98,-99.99,,,0.05,Acu-Link.com,2013-02-21 05:04:00,
2013-02-20 21:20:00,41.4,40.9,29.96,ESE,112,0.0,-999.0,98,-99.99,,,0.05,Acu-Link.com,2013-02-21 05:20:00,
2013-02-20 21:35:00,41.0,40.5,29.97,SSE,157,0.0,-999.0,98,-99.99,,,0.05,Acu-Link.com,2013-02-21 05:35:00,
2013-02-20 21:50:00,40.8,40.3,29.96,SSE,157,0.0,-999.0,98,-99.99,,,0.05,Acu-Link.com,2013-02-21 05:50:00,
2013-02-20 22:05:00,40.8,40.3,29.97,East,90,0.0,-999.0,98,-99.99,,,0.05,Acu-Link.com,2013-02-21 06:05:00,
2013-02-20 22:20:00,41.0,40.5,29.97,North,0,0.0,-999.0,98,-99.99,,,0.05,Acu-Link.com,2013-02-21 06:20:00,
2013-02-20 22:36:00,40.5,40.0,29.97,East,90,2.2,-999.0,98,-99.99,,,0.05,Acu-Link.com,2013-02-21 06:36:00,
2013-02-20 22:51:00,39.9,39.4,29.96,East,90,1.1,-999.0,98,-99.99,,,0.05,Acu-Link.com,2013-02-21 06:51:00,
2013-02-20 23:06:00,39.6,39.1,29.96,ESE,112,0.0,-999.0,98,-99.99,,,0.05,Acu-Link.com,2013-02-21 07:06:00,
2013-02-20 23:21:00,39.4,38.9,29.96,SE,135,1.1,-999.0,98,-99.99,,,0.05,Acu-Link.com,2013-02-21 07:21:00,
2013-02-20 23:37:00,39.4,38.9,29.95,ESE,112,2.2,-999.0,98,-99.99,,,0.05,Acu-Link.com,2013-02-21 07:37:00,
2013-02-20 23:52:00,39.6,39.1,29.95,SSE,157,0.0,-999.0,98,-99.99,,,0.05,Acu-Link.com,2013-02-21 07:52:00,